"FRM_AIS_EDR_2013.DAT           ",2005-08-09T09:47:41.26 ,"1/0071660856.07146",    0,    0,  137447,"AIS","B1","B1","B1","B1","PISd",0,0,0,0,"B1", 0,15,   0, 0,    0,"AIS","N/A    ","OK ","OK ",    000294.445,    0004.724,    -034.179,    0015.870,    0063.762
"FRM_AIS_EDR_2013.DAT           ",2005-08-09T09:47:48.80 ,"1/0071660863.42746",    0,    1,  137447,"AIS","B1","B1","B1","B1","PISd",0,0,0,0,"B1", 0,15,   0, 0,    0,"AIS","N/A    ","OK ","OK ",    000294.522,    0005.223,    -034.179,    0015.872,    0064.048
"FRM_AIS_EDR_2013.DAT           ",2005-08-09T09:47:56.35 ,"1/0071660871.12809",    0,    2,  137447,"AIS","B1","B1","B1","B1","PISd",0,0,0,0,"B1", 0,15,   0, 0,    0,"AIS","N/A    ","OK ","OK ",    000294.705,    0005.722,    -034.180,    0015.874,    0064.337
"FRM_AIS_EDR_2013.DAT           ",2005-08-09T09:48:03.89 ,"1/0071660878.48408",    0,    3,  137447,"AIS","B1","B1","B1","B1","PISd",0,0,0,0,"B1", 0,15,   0, 0,    0,"AIS","N/A    ","OK ","OK ",    000294.992,    0006.221,    -034.181,    0015.876,    0064.626
"FRM_AIS_EDR_2013.DAT           ",2005-08-09T09:48:11.43 ,"1/0071660886.18472",    0,    4,  137447,"AIS","B1","B1","B1","B1","PISd",0,0,0,0,"B1", 0,15,   0, 0,    0,"AIS","N/A    ","OK ","OK ",    000295.384,    0006.720,    -034.182,    0015.878,    0064.917
"FRM_AIS_EDR_2013.DAT           ",2005-08-09T09:48:18.97 ,"1/0071660893.54071",    0,    5,  137447,"AIS","B1","B1","B1","B1","PISd",0,0,0,0,"B1", 0,15,   0, 0,    0,"AIS","N/A    ","OK ","OK ",    000295.880,    0007.219,    -034.182,    0015.880,    0065.209
"FRM_AIS_EDR_2013.DAT           ",2005-08-09T09:48:26.52 ,"1/0071660901.24134",    0,    6,  137447,"AIS","B1","B1","B1","B1","PISd",0,0,0,0,"B1", 0,15,   0, 0,    0,"AIS","N/A    ","OK ","OK ",    000296.482,    0007.718,    -034.183,    0015.882,    0065.503
"FRM_AIS_EDR_2013.DAT           ",2005-08-09T09:48:34.06 ,"1/0071660908.59734",    0,    7,  137447,"AIS","B1","B1","B1","B1","PISd",0,0,0,0,"B1", 0,15,   0, 0,    0,"AIS","N/A    ","OK ","OK ",    000297.188,    0008.217,    -034.184,    0015.884,    0065.797
"FRM_AIS_EDR_2013.DAT           ",2005-08-09T09:48:41.60 ,"1/0071660916.29797",    0,    8,  137447,"AIS","B1","B1","B1","B1","PISd",0,0,0,0,"B1", 0,15,   0, 0,    0,"AIS","N/A    ","OK ","OK ",    000297.999,    0008.716,    -034.184,    0015.886,    0066.093
"FRM_AIS_EDR_2013.DAT           ",2005-08-09T09:48:49.15 ,"1/0071660923.65396",    0,    9,  137447,"AIS","B1","B1","B1","B1","PISd",0,0,0,0,"B1", 0,15,   0, 0,    0,"AIS","N/A    ","OK ","OK ",    000298.914,    0009.214,    -034.185,    0015.888,    0066.390
"FRM_AIS_EDR_2013.DAT           ",2005-08-09T09:48:56.69 ,"1/0071660931.35460",    0,   10,  137447,"AIS","B1","B1","B1","B1","PISd",0,0,0,0,"B1", 0,15,   0, 0,    0,"AIS","N/A    ","OK ","OK ",    000299.934,    0009.712,    -034.185,    0015.890,    0066.689
"FRM_AIS_EDR_2013.DAT           ",2005-08-09T09:49:04.23 ,"1/0071660939.05523",    0,   11,  137447,"AIS","B1","B1","B1","B1","PISd",0,0,0,0,"B1", 0,15,   0, 0,    0,"AIS","N/A    ","OK ","OK ",    000301.057,    0010.210,    -034.185,    0015.892,    0066.988
"FRM_AIS_EDR_2013.DAT           ",2005-08-09T09:49:11.78 ,"1/0071660946.41122",    0,   12,  137447,"AIS","B1","B1","B1","B1","PISd",0,0,0,0,"B1", 0,15,   0, 0,    0,"AIS","N/A    ","OK ","OK ",    000302.285,    0010.707,    -034.185,    0015.894,    0067.288
"FRM_AIS_EDR_2013.DAT           ",2005-08-09T09:49:19.32 ,"1/0071660954.11186",    0,   13,  137447,"AIS","B1","B1","B1","B1","PISd",0,0,0,0,"B1", 0,15,   0, 0,    0,"AIS","N/A    ","OK ","OK ",    000303.616,    0011.204,    -034.186,    0015.896,    0067.589
"FRM_AIS_EDR_2013.DAT           ",2005-08-09T09:49:26.86 ,"1/0071660961.46785",    0,   14,  137447,"AIS","B1","B1","B1","B1","PISd",0,0,0,0,"B1", 0,15,   0, 0,    0,"AIS","N/A    ","OK ","OK ",    000305.051,    0011.701,    -034.186,    0015.898,    0067.891
"FRM_AIS_EDR_2013.DAT           ",2005-08-09T09:49:34.41 ,"1/0071660969.16848",    0,   15,  137447,"AIS","B1","B1","B1","B1","PISd",0,0,0,0,"B1", 0,15,   0, 0,    0,"AIS","N/A    ","OK ","OK ",    000306.590,    0012.197,    -034.186,    0015.900,    0068.194
"FRM_AIS_EDR_2013.DAT           ",2005-08-09T09:49:41.95 ,"1/0071660976.52448",    0,   16,  137447,"AIS","B1","B1","B1","B1","PISd",0,0,0,0,"B1", 0,15,   0, 0,    0,"AIS","N/A    ","OK ","OK ",    000308.232,    0012.693,    -034.185,    0015.902,    0068.498
"FRM_AIS_EDR_2013.DAT           ",2005-08-09T09:49:49.49 ,"1/0071660984.22511",    0,   17,  137447,"AIS","B1","B1","B1","B1","PISd",0,0,0,0,"B1", 0,15,   0, 0,    0,"AIS","N/A    ","OK ","OK ",    000309.976,    0013.189,    -034.185,    0015.904,    0068.803
"FRM_AIS_EDR_2013.DAT           ",2005-08-09T09:49:57.04 ,"1/0071660991.58110",    0,   18,  137447,"AIS","B1","B1","B1","B1","PISd",0,0,0,0,"B1", 0,15,   0, 0,    0,"AIS","N/A    ","OK ","OK ",    000311.824,    0013.684,    -034.185,    0015.906,    0069.108
"FRM_AIS_EDR_2013.DAT           ",2005-08-09T09:50:04.58 ,"1/0071660999.28174",    0,   19,  137447,"AIS","B1","B1","B1","B1","PISd",0,0,0,0,"B1", 0,15,   0, 0,    0,"AIS","N/A    ","OK ","OK ",    000313.773,    0014.178,    -034.184,    0015.908,    0069.415
"FRM_AIS_EDR_2013.DAT           ",2005-08-09T09:50:12.12 ,"1/0071661006.63773",    0,   20,  137447,"AIS","B1","B1","B1","B1","PISd",0,0,0,0,"B1", 0,15,   0, 0,    0,"AIS","N/A    ","OK ","OK ",    000315.825,    0014.672,    -034.184,    0015.910,    0069.721
"FRM_AIS_EDR_2013.DAT           ",2005-08-09T09:50:19.67 ,"1/0071661014.33836",    0,   21,  137447,"AIS","B1","B1","B1","B1","PISd",0,0,0,0,"B1", 0,15,   0, 0,    0,"AIS","N/A    ","OK ","OK ",    000317.979,    0015.166,    -034.183,    0015.912,    0070.029
"FRM_AIS_EDR_2013.DAT           ",2005-08-09T09:50:27.21 ,"1/0071661022.03900",    0,   22,  137447,"AIS","B1","B1","B1","B1","PISd",0,0,0,0,"B1", 0,15,   0, 0,    0,"AIS","N/A    ","OK ","OK ",    000320.235,    0015.659,    -034.183,    0015.914,    0070.337
"FRM_AIS_EDR_2013.DAT           ",2005-08-09T09:50:34.75 ,"1/0071661029.39499",    0,   23,  137447,"AIS","B1","B1","B1","B1","PISd",0,0,0,0,"B1", 0,15,   0, 0,    0,"AIS","N/A    ","OK ","OK ",    000322.591,    0016.151,    -034.182,    0015.917,    0070.645
"FRM_AIS_EDR_2013.DAT           ",2005-08-09T09:50:42.30 ,"1/0071661037.09562",    0,   24,  137447,"AIS","B1","B1","B1","B1","PISd",0,0,0,0,"B1", 0,15,   0, 0,    0,"AIS","N/A    ","OK ","OK ",    000325.049,    0016.643,    -034.181,    0015.919,    0070.955
"FRM_AIS_EDR_2013.DAT           ",2005-08-09T09:50:49.84 ,"1/0071661044.45162",    0,   25,  137447,"AIS","B1","B1","B1","B1","PISd",0,0,0,0,"B1", 0,15,   0, 0,    0,"AIS","N/A    ","OK ","OK ",    000327.607,    0017.134,    -034.180,    0015.921,    0071.264
"FRM_AIS_EDR_2013.DAT           ",2005-08-09T09:50:57.38 ,"1/0071661052.15225",    0,   26,  137447,"AIS","B1","B1","B1","B1","PISd",0,0,0,0,"B1", 0,15,   0, 0,    0,"AIS","N/A    ","OK ","OK ",    000330.265,    0017.624,    -034.178,    0015.923,    0071.574
"FRM_AIS_EDR_2013.DAT           ",2005-08-09T09:51:04.93 ,"1/0071661059.50824",    0,   27,  137447,"AIS","B1","B1","B1","B1","PISd",0,0,0,0,"B1", 0,15,   0, 0,    0,"AIS","N/A    ","OK ","OK ",    000333.024,    0018.114,    -034.177,    0015.925,    0071.885
"FRM_AIS_EDR_2013.DAT           ",2005-08-09T09:51:12.47 ,"1/0071661067.20888",    0,   28,  137447,"AIS","B1","B1","B1","B1","PISd",0,0,0,0,"B1", 0,15,   0, 0,    0,"AIS","N/A    ","OK ","OK ",    000335.882,    0018.603,    -034.176,    0015.927,    0072.195
"FRM_AIS_EDR_2013.DAT           ",2005-08-09T09:51:20.01 ,"1/0071661074.56487",    0,   29,  137447,"AIS","B1","B1","B1","B1","PISd",0,0,0,0,"B1", 0,15,   0, 0,    0,"AIS","N/A    ","OK ","OK ",    000338.839,    0019.091,    -034.174,    0015.929,    0072.507
"FRM_AIS_EDR_2013.DAT           ",2005-08-09T09:51:27.55 ,"1/0071661082.26550",    0,   30,  137447,"AIS","B1","B1","B1","B1","PISd",0,0,0,0,"B1", 0,15,   0, 0,    0,"AIS","N/A    ","OK ","OK ",    000341.894,    0019.579,    -034.172,    0015.932,    0072.818
"FRM_AIS_EDR_2013.DAT           ",2005-08-09T09:51:35.10 ,"1/0071661089.62150",    0,   31,  137447,"AIS","B1","B1","B1","B1","PISd",0,0,0,0,"B1", 0,15,   0, 0,    0,"AIS","N/A    ","OK ","OK ",    000345.048,    0020.065,    -034.170,    0015.934,    0073.130
"FRM_AIS_EDR_2013.DAT           ",2005-08-09T09:51:42.64 ,"1/0071661097.32213",    0,   32,  137447,"AIS","B1","B1","B1","B1","PISd",0,0,0,0,"B1", 0,15,   0, 0,    0,"AIS","N/A    ","OK ","OK ",    000348.300,    0020.551,    -034.168,    0015.936,    0073.441
"FRM_AIS_EDR_2013.DAT           ",2005-08-09T09:51:50.18 ,"1/0071661105.02276",    0,   33,  137447,"AIS","B1","B1","B1","B1","PISd",0,0,0,0,"B1", 0,15,   0, 0,    0,"AIS","N/A    ","OK ","OK ",    000351.649,    0021.036,    -034.166,    0015.938,    0073.753
"FRM_AIS_EDR_2013.DAT           ",2005-08-09T09:51:57.73 ,"1/0071661112.37876",    0,   34,  137447,"AIS","B1","B1","B1","B1","PISd",0,0,0,0,"B1", 0,15,   0, 0,    0,"AIS","N/A    ","OK ","OK ",    000355.095,    0021.520,    -034.164,    0015.940,    0074.066
"FRM_AIS_EDR_2013.DAT           ",2005-08-09T09:52:05.27 ,"1/0071661120.07939",    0,   35,  137447,"AIS","B1","B1","B1","B1","PISd",0,0,0,0,"B1", 0,15,   0, 0,    0,"AIS","N/A    ","OK ","OK ",    000358.638,    0022.004,    -034.161,    0015.943,    0074.378
"FRM_AIS_EDR_2013.DAT           ",2005-08-09T09:52:12.81 ,"1/0071661127.43538",    0,   36,  137447,"AIS","B1","B1","B1","B1","PISd",0,0,0,0,"B1", 0,15,   0, 0,    0,"AIS","N/A    ","OK ","OK ",    000362.277,    0022.486,    -034.159,    0015.945,    0074.690
"FRM_AIS_EDR_2013.DAT           ",2005-08-09T09:52:20.36 ,"1/0071661135.13602",    0,   37,  137447,"AIS","B1","B1","B1","B1","PISd",0,0,0,0,"B1", 0,15,   0, 0,    0,"AIS","N/A    ","OK ","OK ",    000366.011,    0022.968,    -034.156,    0015.947,    0075.002
"FRM_AIS_EDR_2013.DAT           ",2005-08-09T09:52:27.90 ,"1/0071661142.49201",    0,   38,  137447,"AIS","B1","B1","B1","B1","PISd",0,0,0,0,"B1", 0,15,   0, 0,    0,"AIS","N/A    ","OK ","OK ",    000369.841,    0023.448,    -034.153,    0015.949,    0075.315
"FRM_AIS_EDR_2013.DAT           ",2005-08-09T09:52:35.44 ,"1/0071661150.19264",    0,   39,  137447,"AIS","B1","B1","B1","B1","PISd",0,0,0,0,"B1", 0,15,   0, 0,    0,"AIS","N/A    ","OK ","OK ",    000373.765,    0023.928,    -034.149,    0015.951,    0075.627
"FRM_AIS_EDR_2013.DAT           ",2005-08-09T09:52:42.99 ,"1/0071661157.54864",    0,   40,  137447,"AIS","B1","B1","B1","B1","PISd",0,0,0,0,"B1", 0,15,   0, 0,    0,"AIS","N/A    ","OK ","OK ",    000377.783,    0024.406,    -034.146,    0015.954,    0075.939
"FRM_AIS_EDR_2013.DAT           ",2005-08-09T09:52:50.53 ,"1/0071661165.24927",    0,   41,  137447,"AIS","B1","B1","B1","B1","PISd",0,0,0,0,"B1", 0,15,   0, 0,    0,"AIS","N/A    ","OK ","OK ",    000381.895,    0024.884,    -034.143,    0015.956,    0076.251
"FRM_AIS_EDR_2013.DAT           ",2005-08-09T09:52:58.07 ,"1/0071661172.60526",    0,   42,  137447,"AIS","B1","B1","B1","B1","PISd",0,0,0,0,"B1", 0,15,   0, 0,    0,"AIS","N/A    ","OK ","OK ",    000386.100,    0025.360,    -034.139,    0015.958,    0076.563
"FRM_AIS_EDR_2013.DAT           ",2005-08-09T09:53:05.62 ,"1/0071661180.30590",    0,   43,  137447,"AIS","B1","B1","B1","B1","PISd",0,0,0,0,"B1", 0,15,   0, 0,    0,"AIS","N/A    ","OK ","OK ",    000390.398,    0025.836,    -034.135,    0015.961,    0076.875
"FRM_AIS_EDR_2013.DAT           ",2005-08-09T09:53:13.16 ,"1/0071661188.00653",    0,   44,  137447,"AIS","B1","B1","B1","B1","PISd",0,0,0,0,"B1", 0,15,   0, 0,    0,"AIS","N/A    ","OK ","OK ",    000394.787,    0026.310,    -034.131,    0015.963,    0077.187
"FRM_AIS_EDR_2013.DAT           ",2005-08-09T09:53:20.70 ,"1/0071661195.36252",    0,   45,  137447,"AIS","B1","B1","B1","B1","PISd",0,0,0,0,"B1", 0,15,   0, 0,    0,"AIS","N/A    ","OK ","OK ",    000399.268,    0026.783,    -034.126,    0015.965,    0077.498
"FRM_AIS_EDR_2013.DAT           ",2005-08-09T09:53:28.25 ,"1/0071661203.06316",    0,   46,  137447,"AIS","B1","B1","B1","B1","PISd",0,0,0,0,"B1", 0,15,   0, 0,    0,"AIS","N/A    ","OK ","OK ",    000403.840,    0027.255,    -034.122,    0015.967,    0077.809
"FRM_AIS_EDR_2013.DAT           ",2005-08-09T09:53:35.79 ,"1/0071661210.41915",    0,   47,  137447,"AIS","B1","B1","B1","B1","PISd",0,0,0,0,"B1", 0,15,   0, 0,    0,"AIS","N/A    ","OK ","OK ",    000408.502,    0027.726,    -034.117,    0015.970,    0078.120
"FRM_AIS_EDR_2013.DAT           ",2005-08-09T09:53:43.33 ,"1/0071661218.11978",    0,   48,  137447,"AIS","B1","B1","B1","B1","PISd",0,0,0,0,"B1", 0,15,   0, 0,    0,"AIS","N/A    ","OK ","OK ",    000413.254,    0028.196,    -034.112,    0015.972,    0078.430
"FRM_AIS_EDR_2013.DAT           ",2005-08-09T09:53:50.88 ,"1/0071661225.47577",    0,   49,  137447,"AIS","B1","B1","B1","B1","PISd",0,0,0,0,"B1", 0,15,   0, 0,    0,"AIS","N/A    ","OK ","OK ",    000418.096,    0028.665,    -034.107,    0015.975,    0078.740
"FRM_AIS_EDR_2013.DAT           ",2005-08-09T09:53:58.42 ,"1/0071661233.17641",    0,   50,  137447,"AIS","B1","B1","B1","B1","PISd",0,0,0,0,"B1", 0,15,   0, 0,    0,"AIS","N/A    ","OK ","OK ",    000423.026,    0029.133,    -034.101,    0015.977,    0079.050
"FRM_AIS_EDR_2013.DAT           ",2005-08-09T09:54:05.96 ,"1/0071661240.53240",    0,   51,  137447,"AIS","B1","B1","B1","B1","PISd",0,0,0,0,"B1", 0,15,   0, 0,    0,"AIS","N/A    ","OK ","OK ",    000428.043,    0029.599,    -034.095,    0015.979,    0079.359
"FRM_AIS_EDR_2013.DAT           ",2005-08-09T09:54:13.51 ,"1/0071661248.23303",    0,   52,  137447,"AIS","B1","B1","B1","B1","PISd",0,0,0,0,"B1", 0,15,   0, 0,    0,"AIS","N/A    ","OK ","OK ",    000433.149,    0030.064,    -034.090,    0015.982,    0079.668
"FRM_AIS_EDR_2013.DAT           ",2005-08-09T09:54:21.05 ,"1/0071661255.58903",    0,   53,  137447,"AIS","B1","B1","B1","B1","PISd",0,0,0,0,"B1", 0,15,   0, 0,    0,"AIS","N/A    ","OK ","OK ",    000438.341,    0030.528,    -034.083,    0015.984,    0079.976
"FRM_AIS_EDR_2013.DAT           ",2005-08-09T09:54:28.59 ,"1/0071661263.28966",    0,   54,  137447,"AIS","B1","B1","B1","B1","PISd",0,0,0,0,"B1", 0,15,   0, 0,    0,"AIS","N/A    ","OK ","OK ",    000443.619,    0030.991,    -034.077,    0015.987,    0080.284
"FRM_AIS_EDR_2013.DAT           ",2005-08-09T09:54:36.13 ,"1/0071661270.64565",    0,   55,  137447,"AIS","B1","B1","B1","B1","PISd",0,0,0,0,"B1", 0,15,   0, 0,    0,"AIS","N/A    ","OK ","OK ",    000448.983,    0031.452,    -034.070,    0015.989,    0080.592
"FRM_AIS_EDR_2013.DAT           ",2005-08-09T09:54:43.68 ,"1/0071661278.34629",    0,   56,  137447,"AIS","B1","B1","B1","B1","PISd",0,0,0,0,"B1", 0,15,   0, 0,    0,"AIS","N/A    ","OK ","OK ",    000454.432,    0031.912,    -034.063,    0015.992,    0080.898
"FRM_AIS_EDR_2013.DAT           ",2005-08-09T09:54:51.22 ,"1/0071661286.04692",    0,   57,  137447,"AIS","B1","B1","B1","B1","PISd",0,0,0,0,"B1", 0,15,   0, 0,    0,"AIS","N/A    ","OK ","OK ",    000459.965,    0032.371,    -034.056,    0015.994,    0081.205
"FRM_AIS_EDR_2013.DAT           ",2005-08-09T09:54:58.76 ,"1/0071661293.40291",    0,   58,  137447,"AIS","B1","B1","B1","B1","PISd",0,0,0,0,"B1", 0,15,   0, 0,    0,"AIS","N/A    ","OK ","OK ",    000465.582,    0032.829,    -034.048,    0015.997,    0081.510
"FRM_AIS_EDR_2013.DAT           ",2005-08-09T09:55:06.31 ,"1/0071661301.10355",    0,   59,  137447,"AIS","B1","B1","B1","B1","PISd",0,0,0,0,"B1", 0,15,   0, 0,    0,"AIS","N/A    ","OK ","OK ",    000471.282,    0033.285,    -034.041,    0015.999,    0081.815
"FRM_AIS_EDR_2013.DAT           ",2005-08-09T09:55:13.85 ,"1/0071661308.45954",    0,   60,  137447,"AIS","B1","B1","B1","B1","PISd",0,0,0,0,"B1", 0,15,   0, 0,    0,"AIS","N/A    ","OK ","OK ",    000477.065,    0033.740,    -034.033,    0016.002,    0082.120
"FRM_AIS_EDR_2013.DAT           ",2005-08-09T09:55:21.39 ,"1/0071661316.16017",    0,   61,  137447,"AIS","B1","B1","B1","B1","PISd",0,0,0,0,"B1", 0,15,   0, 0,    0,"AIS","N/A    ","OK ","OK ",    000482.929,    0034.193,    -034.024,    0016.005,    0082.424
"FRM_AIS_EDR_2013.DAT           ",2005-08-09T09:55:28.94 ,"1/0071661323.51617",    0,   62,  137447,"AIS","B1","B1","B1","B1","PISd",0,0,0,0,"B1", 0,15,   0, 0,    0,"AIS","N/A    ","OK ","OK ",    000488.875,    0034.645,    -034.015,    0016.007,    0082.727
"FRM_AIS_EDR_2013.DAT           ",2005-08-09T09:55:36.48 ,"1/0071661331.21680",    0,   63,  137447,"AIS","B1","B1","B1","B1","PISd",0,0,0,0,"B1", 0,15,   0, 0,    0,"AIS","N/A    ","OK ","OK ",    000494.901,    0035.096,    -034.006,    0016.010,    0083.029
"FRM_AIS_EDR_2013.DAT           ",2005-08-09T09:55:44.02 ,"1/0071661338.57279",    0,   64,  137447,"AIS","B1","B1","B1","B1","PISd",0,0,0,0,"B1", 0,15,   0, 0,    0,"AIS","N/A    ","OK ","OK ",    000501.007,    0035.546,    -033.997,    0016.012,    0083.330
"FRM_AIS_EDR_2013.DAT           ",2005-08-09T09:55:51.57 ,"1/0071661346.27343",    0,   65,  137447,"AIS","B1","B1","B1","B1","PISd",0,0,0,0,"B1", 0,15,   0, 0,    0,"AIS","N/A    ","OK ","OK ",    000507.192,    0035.994,    -033.987,    0016.015,    0083.631
"FRM_AIS_EDR_2013.DAT           ",2005-08-09T09:55:59.11 ,"1/0071661353.62942",    0,   66,  137447,"AIS","B1","B1","B1","B1","PISd",0,0,0,0,"B1", 0,15,   0, 0,    0,"AIS","N/A    ","OK ","OK ",    000513.455,    0036.440,    -033.977,    0016.018,    0083.931
"FRM_AIS_EDR_2013.DAT           ",2005-08-09T09:56:06.65 ,"1/0071661361.33005",    0,   67,  137447,"AIS","B1","B1","B1","B1","PISd",0,0,0,0,"B1", 0,15,   0, 0,    0,"AIS","N/A    ","OK ","OK ",    000519.797,    0036.885,    -033.967,    0016.021,    0084.231
"FRM_AIS_EDR_2013.DAT           ",2005-08-09T09:56:14.20 ,"1/0071661369.03069",    0,   68,  137447,"AIS","B1","B1","B1","B1","PISd",0,0,0,0,"B1", 0,15,   0, 0,    0,"AIS","N/A    ","OK ","OK ",    000526.216,    0037.329,    -033.956,    0016.023,    0084.529
"FRM_AIS_EDR_2013.DAT           ",2005-08-09T09:56:21.74 ,"1/0071661376.38668",    0,   69,  137447,"AIS","B1","B1","B1","B1","PISd",0,0,0,0,"B1", 0,15,   0, 0,    0,"AIS","N/A    ","OK ","OK ",    000532.711,    0037.771,    -033.945,    0016.026,    0084.827
"FRM_AIS_EDR_2013.DAT           ",2005-08-09T09:56:29.28 ,"1/0071661384.08731",    0,   70,  137447,"AIS","B1","B1","B1","B1","PISd",0,0,0,0,"B1", 0,15,   0, 0,    0,"AIS","N/A    ","OK ","OK ",    000539.282,    0038.212,    -033.934,    0016.029,    0085.124
"FRM_AIS_EDR_2013.DAT           ",2005-08-09T09:56:36.83 ,"1/0071661391.44331",    0,   71,  137447,"AIS","B1","B1","B1","B1","PISd",0,0,0,0,"B1", 0,15,   0, 0,    0,"AIS","N/A    ","OK ","OK ",    000545.928,    0038.651,    -033.922,    0016.032,    0085.419
"FRM_AIS_EDR_2013.DAT           ",2005-08-09T09:56:44.37 ,"1/0071661399.14394",    0,   72,  137447,"AIS","B1","B1","B1","B1","PISd",0,0,0,0,"B1", 0,15,   0, 0,    0,"AIS","N/A    ","OK ","OK ",    000552.649,    0039.089,    -033.910,    0016.035,    0085.714
"FRM_AIS_EDR_2013.DAT           ",2005-08-09T09:56:51.91 ,"1/0071661406.49993",    0,   73,  137447,"AIS","B1","B1","B1","B1","PISd",0,0,0,0,"B1", 0,15,   0, 0,    0,"AIS","N/A    ","OK ","OK ",    000559.444,    0039.526,    -033.898,    0016.038,    0086.009
"FRM_AIS_EDR_2013.DAT           ",2005-08-09T09:56:59.46 ,"1/0071661414.20057",    0,   74,  137447,"AIS","B1","B1","B1","B1","PISd",0,0,0,0,"B1", 0,15,   0, 0,    0,"AIS","N/A    ","OK ","OK ",    000566.312,    0039.960,    -033.885,    0016.041,    0086.302
"FRM_AIS_EDR_2013.DAT           ",2005-08-09T09:57:07.00 ,"1/0071661421.55656",    0,   75,  137447,"AIS","B1","B1","B1","B1","PISd",0,0,0,0,"B1", 0,15,   0, 0,    0,"AIS","N/A    ","OK ","OK ",    000573.252,    0040.394,    -033.871,    0016.043,    0086.594
"FRM_AIS_EDR_2013.DAT           ",2005-08-09T09:57:14.54 ,"1/0071661429.25719",    0,   76,  137447,"AIS","B1","B1","B1","B1","PISd",0,0,0,0,"B1", 0,15,   0, 0,    0,"AIS","N/A    ","OK ","OK ",    000580.265,    0040.826,    -033.858,    0016.046,    0086.885
"FRM_AIS_EDR_2013.DAT           ",2005-08-09T09:57:22.09 ,"1/0071661436.61318",    0,   77,  137447,"AIS","B1","B1","B1","B1","PISd",0,0,0,0,"B1", 0,15,   0, 0,    0,"AIS","N/A    ","OK ","OK ",    000587.348,    0041.256,    -033.843,    0016.049,    0087.176
"FRM_AIS_EDR_2013.DAT           ",2005-08-09T09:57:29.63 ,"1/0071661444.31382",    0,   78,  137447,"AIS","B1","B1","B1","B1","PISd",0,0,0,0,"B1", 0,15,   0, 0,    0,"AIS","N/A    ","OK ","OK ",    000594.502,    0041.685,    -033.829,    0016.052,    0087.465
"FRM_AIS_EDR_2013.DAT           ",2005-08-09T09:57:37.17 ,"1/0071661452.01445",    0,   79,  137447,"AIS","B1","B1","B1","B1","PISd",0,0,0,0,"B1", 0,15,   0, 0,    0,"AIS","N/A    ","OK ","OK ",    000601.726,    0042.112,    -033.814,    0016.055,    0087.753
"FRM_AIS_EDR_2013.DAT           ",2005-08-09T09:57:44.72 ,"1/0071661459.37044",    0,   80,  137447,"AIS","B1","B1","B1","B1","PISd",0,0,0,0,"B1", 0,15,   0, 0,    0,"AIS","N/A    ","OK ","OK ",    000609.018,    0042.538,    -033.798,    0016.058,    0088.041
"FRM_AIS_EDR_2013.DAT           ",2005-08-09T09:57:52.26 ,"1/0071661467.07108",    0,   81,  137447,"AIS","B1","B1","B1","B1","PISd",0,0,0,0,"B1", 0,15,   0, 0,    0,"AIS","N/A    ","OK ","OK ",    000616.380,    0042.962,    -033.782,    0016.062,    0088.327
"FRM_AIS_EDR_2013.DAT           ",2005-08-09T09:57:59.80 ,"1/0071661474.42707",    0,   82,  137447,"AIS","B1","B1","B1","B1","PISd",0,0,0,0,"B1", 0,15,   0, 0,    0,"AIS","N/A    ","OK ","OK ",    000623.809,    0043.385,    -033.766,    0016.065,    0088.612
"FRM_AIS_EDR_2013.DAT           ",2005-08-09T09:58:07.34 ,"1/0071661482.12770",    0,   83,  137447,"AIS","B1","B1","B1","B1","PISd",0,0,0,0,"B1", 0,15,   0, 0,    0,"AIS","N/A    ","OK ","OK ",    000631.305,    0043.806,    -033.749,    0016.068,    0088.897
"FRM_AIS_EDR_2013.DAT           ",2005-08-09T09:58:14.89 ,"1/0071661489.48370",    0,   84,  137447,"AIS","B1","B1","B1","B1","PISd",0,0,0,0,"B1", 0,15,   0, 0,    0,"AIS","N/A    ","OK ","OK ",    000638.867,    0044.225,    -033.731,    0016.071,    0089.180
"FRM_AIS_EDR_2013.DAT           ",2005-08-09T09:58:22.43 ,"1/0071661497.18433",    0,   85,  137447,"AIS","B1","B1","B1","B1","PISd",0,0,0,0,"B1", 0,15,   0, 0,    0,"AIS","N/A    ","OK ","OK ",    000646.495,    0044.643,    -033.713,    0016.074,    0089.462
"FRM_AIS_EDR_2013.DAT           ",2005-08-09T09:58:29.97 ,"1/0071661504.54032",    0,   86,  137447,"AIS","B1","B1","B1","B1","PISd",0,0,0,0,"B1", 0,15,   0, 0,    0,"AIS","N/A    ","OK ","OK ",    000654.188,    0045.060,    -033.695,    0016.078,    0089.743
"FRM_AIS_EDR_2013.DAT           ",2005-08-09T09:58:37.52 ,"1/0071661512.24096",    0,   87,  137447,"AIS","B1","B1","B1","B1","PISd",0,0,0,0,"B1", 0,15,   0, 0,    0,"AIS","N/A    ","OK ","OK ",    000661.946,    0045.474,    -033.676,    0016.081,    0090.023
"FRM_AIS_EDR_2013.DAT           ",2005-08-09T09:58:45.06 ,"1/0071661519.59695",    0,   88,  137447,"AIS","B1","B1","B1","B1","PISd",0,0,0,0,"B1", 0,15,   0, 0,    0,"AIS","N/A    ","OK ","OK ",    000669.767,    0045.887,    -033.656,    0016.084,    0090.302
"FRM_AIS_EDR_2013.DAT           ",2005-08-09T09:58:52.60 ,"1/0071661527.29758",    0,   89,  137447,"AIS","B1","B1","B1","B1","PISd",0,0,0,0,"B1", 0,15,   0, 0,    0,"AIS","N/A    ","OK ","OK ",    000677.651,    0046.299,    -033.636,    0016.087,    0090.579
"FRM_AIS_EDR_2013.DAT           ",2005-08-09T09:59:00.15 ,"1/0071661534.65358",    0,   90,  137447,"AIS","B1","B1","B1","B1","PISd",0,0,0,0,"B1", 0,15,   0, 0,    0,"AIS","N/A    ","OK ","OK ",    000685.598,    0046.709,    -033.616,    0016.091,    0090.856